CW6666 Weather Reports


Display with metric or nautical units.
time (UTC)temp
F
wind
direction
speed
MPH
gust
MPH
rain 1hr
in
rain 24hr
in
rain mn
in
humidity
%
barometer
mb
20141127052406 84 51 20.0 24.0 0.00 0.02 0.02 86 1006.9
20141127051841 85 30 14.0 19.0 0.00 0.02 0.02 87 1006.9
20141127050402 84 50 14.0 17.0 0.00 0.02 0.02 88 1007.2
20141127045837 83 30 14.0 18.0 0.00 0.02 0.02 88 1007.3
20141127045405 83 36 15.0 18.0 0.00 0.02 0.02 88 1007.3
20141127044854 83 36 13.0 19.0 0.00 0.02 0.02 88 1007.3
20141127043916 82 52 20.0 24.0 0.00 0.02 0.02 87 1007.2
20141127043348 82 55 16.0 27.0 0.00 0.02 0.02 88 1007.2
20141127042927 83 55 21.0 28.0 0.00 0.02 0.02 87 1006.9
20141127042353 85 51 22.0 28.0 0.00 0.02 0.02 83 1006.9
20141127041828 86 37 18.0 25.0 0.00 0.02 0.02 83 1006.9
20141127041401 86 39 20.0 25.0 0.00 0.02 0.02 83 1007.0
20141127040829 86 36 19.0 23.0 0.00 0.02 0.02 82 1007.0
20141127034901 85 28 16.0 24.0 0.00 0.02 0.02 84 1007.0
20141127033909 85 44 17.0 22.0 0.00 0.02 0.02 82 1007.2
20141127033343 86 41 16.0 23.0 0.00 0.02 0.02 82 1007.2
20141127032838 86 31 17.0 23.0 0.00 0.02 0.02 82 1007.1
20141127030331 86 33 16.0 21.0 0.00 0.02 0.02 83 1007.4
20141127025920 86 37 19.0 21.0 0.00 0.02 0.02 82 1007.5
20141127024909 86 37 17.0 22.0 0.00 0.02 0.02 83 1007.5
20141127024348 86 26 16.0 21.0 0.00 0.02 0.02 83 1007.7
20141127023854 86 22 17.0 22.0 0.00 0.02 0.02 83 1007.7
20141127023359 85 30 20.0 23.0 0.00 0.02 0.02 83 1007.7
20141127022846 85 34 20.0 23.0 0.00 0.02 0.02 84 1008.0
20141127022417 85 30 19.0 23.0 0.00 0.02 0.02 84 1008.0
20141127021858 85 32 16.0 23.0 0.00 0.02 0.02 84 1008.0
20141127020918 86 38 19.0 23.0 0.00 0.02 0.02 81 1008.2
20141127020415 86 32 20.0 23.0 0.00 0.02 0.02 81 1008.2
20141127015846 86 32 14.0 21.0 0.00 0.02 0.02 82 1008.5
20141127015417 86 26 17.0 21.0 0.00 0.02 0.02 81 1008.5
20141127013905 86 35 19.0 21.0 0.00 0.02 0.02 83 1008.7
20141127013341 86 29 17.0 21.0 0.00 0.02 0.02 83 1008.7
20141127012831 86 33 17.0 20.0 0.00 0.02 0.02 83 1008.8
20141127012359 86 40 15.0 20.0 0.00 0.02 0.02 83 1008.8
20141127011849 86 19 14.0 20.0 0.00 0.02 0.02 82 1008.8
20141127011423 86 28 20.0 21.0 0.00 0.02 0.02 82 1009.0
20141127010901 86 37 19.0 21.0 0.00 0.02 0.02 82 1009.0
20141127010344 86 40 17.0 21.0 0.00 0.02 0.02 82 1009.0
20141127005923 86 34 18.0 21.0 0.00 0.02 0.02 82 1009.1
20141127005349 86 28 15.0 22.0 0.00 0.02 0.02 83 1009.1
20141127004840 86 40 18.0 22.0 0.00 0.02 0.02 82 1009.1
20141127003913 86 32 18.0 21.0 0.00 0.02 0.02 82 1009.4
20141127003335 86 38 20.0 21.0 0.00 0.02 0.02 83 1009.4
20141127002829 86 46 17.0 22.0 0.00 0.02 0.02 82 1009.5
20141127002405 86 32 18.0 22.0 0.00 0.02 0.02 81 1009.5
20141127001909 86 36 18.0 20.0 0.00 0.02 0.02 82 1009.5
20141127001349 85 32 18.0 21.0 0.00 0.02 0.02 82 1009.7
20141127000836 86 38 19.0 21.0 0.00 0.02 0.02 81 1009.7
20141127000420 86 37 18.0 24.0 0.00 0.02 0.02 81 1009.7
20141126235858 85 44 21.0 24.0 0.00 0.02 0.02 81 1009.8
20141126233346 85 41 19.0 23.0 0.00 0.02 0.02 82 1009.8
20141126232834 85 41 18.0 24.0 0.00 0.02 0.02 83 1009.6
20141126232353 85 38 19.0 24.0 0.00 0.02 0.02 83 1009.6
20141126231835 85 46 18.0 24.0 0.00 0.02 0.02 82 1009.6
20141126231342 85 35 18.0 24.0 0.00 0.02 0.02 82 1009.9
20141126230835 85 46 21.0 23.0 0.00 0.02 0.02 81 1009.9
20141126230406 85 39 20.0 24.0 0.00 0.02 0.02 82 1009.9
20141126225835 85 47 20.0 24.0 0.00 0.02 0.02 83 1009.7
20141126225359 85 38 20.0 24.0 0.00 0.02 0.02 83 1009.7
20141126224857 85 51 21.0 25.0 0.00 0.02 0.02 83 1009.7
20141126223912 85 45 20.0 25.0 0.01 0.02 0.02 83 1009.6
20141126223340 85 49 23.0 25.0 0.02 0.02 0.02 83 1009.6
20141126222832 84 38 21.0 25.0 0.02 0.02 0.02 84 1009.4
20141126222357 84 37 22.0 24.0 0.02 0.02 0.02 86 1009.4
20141126221841 83 34 8.0 11.0 0.02 0.02 0.02 87 1009.4
20141126220855 82 28 6.0 9.0 0.02 0.02 0.02 89 1009.3
20141126220348 81 17 7.0 12.0 0.02 0.02 0.02 88 1009.3
20141126215402 81 19 10.0 18.0 0.02 0.02 0.02 89 1009.3
20141126214835 81 55 11.0 22.0 0.02 0.02 0.02 89 1009.3
20141126213906 82 52 26.0 30.0 0.01 0.01 0.01 86 1009.0
20141126213340 83 33 16.0 22.0 0.00 0.00 0.00 84 1009.0
20141126212831 83 34 13.0 22.0 0.00 0.00 0.00 84 1008.9
20141126212402 83 34 18.0 22.0 0.00 0.00 0.00 83 1008.9
20141126211832 83 26 20.0 21.0 0.00 0.00 0.00 84 1008.9
20141126211419 83 28 16.0 21.0 0.00 0.00 0.00 84 1008.9
20141126210922 83 33 16.0 20.0 0.00 0.00 0.00 84 1008.9
20141126210348 83 38 18.0 21.0 0.00 0.00 0.00 86 1008.9
20141126205351 82 22 8.0 12.0 0.00 0.00 0.00 88 1008.8
20141126204831 81 37 11.0 24.0 0.00 0.00 0.00 88 1008.8
20141126204359 81 40 17.0 24.0 0.00 0.00 0.00 86 1008.6
20141126203843 83 35 19.0 24.0 0.00 0.00 0.00 84 1008.6
20141126203403 83 5 18.0 22.0 0.00 0.00 0.00 84 1008.6
20141126202842 83 18 12.0 20.0 0.00 0.00 0.00 84 1008.5
20141126202424 83 39 19.0 20.0 0.00 0.00 0.00 84 1008.5
20141126201856 83 40 13.0 20.0 0.00 0.00 0.00 84 1008.5
20141126200830 83 42 16.0 18.0 0.00 0.00 0.00 85 1008.4
20141126200350 83 34 10.0 10.0 0.00 0.00 0.00 85 1008.4
20141126195828 82 15 6.0 9.0 0.00 0.00 0.00 85 1008.0
20141126195416 82 28 5.0 9.0 0.00 0.00 0.00 85 1008.0
20141126194854 82 28 4.0 7.0 0.00 0.00 0.00 85 1008.0
20141126193926 82 25 5.0 7.0 0.00 0.00 0.00 85 1007.9
20141126193354 83 5 1.0 9.0 0.00 0.00 0.00 84 1007.9
20141126191350 83 30 8.0 16.0 0.00 0.00 0.00 84 1007.6
20141126190831 83 34 12.0 17.0 0.00 0.00 0.00 84 1007.6
20141126185357 83 32 16.0 19.0 0.00 0.00 0.00 83 1007.5
20141126184838 83 38 14.0 20.0 0.00 0.00 0.00 84 1007.5
20141126184409 83 34 12.0 21.0 0.00 0.00 0.00 84 1007.5
20141126183848 83 40 13.0 21.0 0.00 0.00 0.00 84 1007.5
20141126181909 83 40 17.0 20.0 0.00 0.00 0.00 84 1007.5
20141126181338 83 39 16.0 20.0 0.00 0.00 0.00 84 1007.4
20141126180830 83 26 16.0 19.0 0.00 0.00 0.00 84 1007.4
20141126175854 83 26 13.0 21.0 0.00 0.00 0.00 84 1007.6
20141126175339 83 37 17.0 22.0 0.00 0.00 0.00 84 1007.6
20141126174925 83 34 19.0 22.0 0.00 0.00 0.00 85 1007.6
20141126174344 83 45 15.0 21.0 0.00 0.00 0.00 85 1007.5
20141126173401 83 33 14.0 21.0 0.00 0.00 0.00 84 1007.5
20141126172828 83 31 14.0 21.0 0.00 0.00 0.00 85 1007.6
20141126172407 83 18 13.0 19.0 0.00 0.00 0.00 85 1007.6
20141126171836 83 27 14.0 20.0 0.00 0.00 0.00 84 1007.6
20141126171411 83 22 17.0 21.0 0.00 0.00 0.00 84 1007.8
20141126170849 83 36 16.0 21.0 0.00 0.00 0.00 85 1007.8
20141126165853 83 36 18.0 21.0 0.00 0.00 0.00 85 1008.0
20141126164405 83 32 16.0 20.0 0.00 0.00 0.00 85 1008.0
20141126163843 83 31 17.0 20.0 0.00 0.00 0.00 84 1008.0
20141126163416 84 27 14.0 19.0 0.00 0.00 0.00 85 1008.0
20141126162841 83 29 16.0 19.0 0.00 0.00 0.00 85 1008.1
20141126162422 83 37 14.0 20.0 0.00 0.00 0.00 85 1008.1
20141126161901 83 28 11.0 20.0 0.00 0.00 0.00 85 1008.1
20141126161423 84 22 13.0 18.0 0.00 0.00 0.00 85 1008.3
20141126160901 84 26 15.0 21.0 0.00 0.00 0.00 85 1008.3
20141126160422 84 46 19.0 22.0 0.00 0.00 0.00 84 1008.3
20141126155834 84 37 18.0 22.0 0.00 0.00 0.00 84 1008.2
20141126155342 84 15 15.0 21.0 0.00 0.00 0.00 85 1008.2
20141126154847 84 50 17.0 21.0 0.00 0.00 0.00 84 1008.2
20141126154335 84 24 15.0 19.0 0.00 0.00 0.00 84 1008.5
20141126153841 84 28 14.0 20.0 0.00 0.00 0.00 84 1008.5
20141126153332 84 40 17.0 20.0 0.00 0.00 0.00 84 1008.5
20141126152838 84 31 13.0 21.0 0.00 0.00 0.00 84 1008.5
20141126152345 83 38 16.0 21.0 0.00 0.00 0.00 84 1008.5
20141126151831 84 34 15.0 21.0 0.00 0.00 0.00 85 1008.5
20141126151337 84 32 15.0 19.0 0.00 0.00 0.00 84 1008.6
20141126150843 84 32 10.0 18.0 0.00 0.00 0.00 84 1008.6
20141126150333 84 39 15.0 18.0 0.00 0.00 0.00 84 1008.6
20141126145836 84 30 11.0 20.0 0.00 0.00 0.00 85 1008.6
20141126145344 84 24 15.0 20.0 0.00 0.00 0.00 84 1008.6
20141126144829 84 38 13.0 21.0 0.00 0.00 0.00 85 1008.6
20141126144340 84 37 17.0 21.0 0.00 0.00 0.00 84 1008.7
20141126143848 84 42 15.0 20.0 0.00 0.00 0.00 85 1008.7
20141126143335 84 33 17.0 21.0 0.00 0.00 0.00 84 1008.7
20141126142840 84 30 15.0 21.0 0.00 0.00 0.00 85 1008.7
20141126142328 84 31 16.0 20.0 0.00 0.00 0.00 84 1008.7
20141126141836 84 40 16.0 20.0 0.00 0.00 0.00 84 1008.7
20141126141325 84 24 15.0 20.0 0.00 0.00 0.00 85 1008.7
20141126140834 84 22 14.0 20.0 0.00 0.00 0.00 85 1008.7
20141126140343 84 36 17.0 21.0 0.00 0.00 0.00 84 1008.7
20141126135842 84 27 19.0 21.0 0.00 0.00 0.00 84 1008.6
20141126134902 84 45 16.0 19.0 0.00 0.00 0.00 85 1008.6
20141126134430 84 42 14.0 21.0 0.00 0.00 0.00 84 1008.8
20141126133854 84 34 18.0 21.0 0.00 0.00 0.00 84 1008.8
20141126132925 84 47 18.0 20.0 0.00 0.00 0.00 84 1008.8
20141126132403 84 53 16.0 20.0 0.00 0.00 0.00 85 1008.8
20141126131832 84 55 18.0 19.0 0.00 0.00 0.00 84 1008.8
20141126131414 84 47 17.0 19.0 0.00 0.00 0.00 84 1009.0
20141126130842 84 55 17.0 20.0 0.00 0.00 0.00 83 1009.0
20141126130417 84 40 17.0 21.0 0.00 0.00 0.00 83 1009.0
20141126125907 84 43 19.0 21.0 0.00 0.00 0.00 83 1008.9
20141126125325 84 47 17.0 20.0 0.00 0.00 0.00 85 1008.9
20141126123351 84 38 18.0 20.0 0.00 0.00 0.00 85 1008.8
20141126122828 84 36 18.0 20.0 0.00 0.00 0.00 85 1009.0
20141126122401 84 41 16.0 19.0 0.00 0.00 0.00 85 1009.0
20141126121844 84 39 13.0 19.0 0.00 0.00 0.00 85 1009.0
20141126121412 84 34 13.0 17.0 0.00 0.00 0.00 85 1009.0
20141126120846 84 41 15.0 17.0 0.00 0.00 0.00 85 1009.0
20141126120419 84 32 13.0 17.0 0.00 0.00 0.00 85 1009.0
20141126115831 84 41 14.0 17.0 0.00 0.00 0.00 85 1009.0
20141126115405 84 40 14.0 17.0 0.00 0.00 0.00 84 1009.0
20141126114830 84 39 16.0 17.0 0.00 0.00 0.00 84 1009.0
20141126114404 84 36 15.0 16.0 0.00 0.00 0.00 84 1009.0
20141126113850 84 31 14.0 16.0 0.00 0.00 0.00 84 1009.0
20141126113420 84 30 13.0 15.0 0.00 0.00 0.00 84 1009.0
20141126112854 84 36 14.0 17.0 0.00 0.00 0.00 84 1009.0
20141126112329 84 41 14.0 17.0 0.00 0.00 0.00 83 1009.0
20141126111915 84 31 14.0 18.0 0.00 0.00 0.00 83 1009.0
20141126111329 84 37 15.0 18.0 0.00 0.00 0.00 84 1009.0
20141126110419 84 30 14.0 18.0 0.00 0.00 0.00 83 1009.0
20141126105844 84 50 17.0 18.0 0.00 0.00 0.00 83 1008.8
20141126105327 84 38 16.0 17.0 0.00 0.00 0.00 83 1008.8
20141126103409 84 45 13.0 19.0 0.00 0.00 0.00 85 1008.6
20141126102355 84 51 15.0 18.0 0.00 0.00 0.00 83 1008.4
20141126101828 84 32 16.0 21.0 0.00 0.00 0.00 83 1008.4
20141126101404 84 44 16.0 21.0 0.00 0.00 0.00 83 1008.4
20141126100837 84 40 15.0 17.0 0.00 0.00 0.00 84 1008.4
20141126095851 84 35 15.0 20.0 0.00 0.00 0.00 83 1008.2
20141126094352 84 40 17.0 19.0 0.00 0.00 0.00 84 1008.0
20141126093839 84 40 15.0 18.0 0.00 0.00 0.00 84 1008.0
20141126093405 84 48 15.0 19.0 0.00 0.00 0.00 83 1008.0
20141126092837 84 30 18.0 19.0 0.00 0.00 0.00 84 1007.9
20141126091354 84 47 16.0 18.0 0.00 0.00 0.00 84 1007.7
20141126090824 84 44 18.0 18.0 0.00 0.00 0.00 83 1007.7
20141126090409 84 40 16.0 18.0 0.00 0.00 0.00 84 1007.7
20141126085839 84 55 16.0 20.0 0.00 0.00 0.00 84 1007.4
20141126084901 84 40 14.0 18.0 0.00 0.00 0.00 84 1007.4
20141126084351 84 61 17.0 19.0 0.00 0.00 0.00 84 1007.3
20141126083838 84 42 15.0 19.0 0.00 0.00 0.00 84 1007.3
20141126082411 84 37 14.0 18.0 0.00 0.00 0.00 84 1007.2
20141126081835 84 46 17.0 19.0 0.00 0.00 0.00 83 1007.2
20141126080357 84 44 16.0 19.0 0.00 0.00 0.00 84 1007.2
20141126075833 84 41 16.0 18.0 0.00 0.00 0.00 84 1007.0
20141126075410 84 30 16.0 18.0 0.00 0.00 0.00 84 1007.0
20141126074909 84 41 15.0 18.0 0.00 0.00 0.00 84 1007.0
20141126074330 84 56 16.0 18.0 0.00 0.00 0.00 84 1006.9
20141126073925 84 41 15.0 17.0 0.00 0.00 0.00 84 1006.9
20141126073349 84 40 15.0 17.0 0.00 0.00 0.00 84 1006.9
20141126072829 84 43 14.0 19.0 0.00 0.00 0.00 84 1006.8
20141126072353 84 43 16.0 19.0 0.00 0.00 0.00 83 1006.8
20141126071832 84 43 14.0 16.0 0.00 0.00 0.00 83 1006.8
20141126070921 84 45 16.0 17.0 0.00 0.00 0.00 83 1006.4
20141126070351 84 36 16.0 17.0 0.00 0.00 0.00 84 1006.4
20141126065833 84 40 15.0 17.0 0.00 0.00 0.00 84 1006.3
20141126065404 84 40 15.0 17.0 0.00 0.00 0.00 84 1006.3
20141126064835 84 38 11.0 14.0 0.00 0.00 0.00 85 1006.3
20141126063909 85 28 14.0 16.0 0.00 0.00 0.00 85 1006.1
20141126063338 85 38 15.0 16.0 0.00 0.00 0.00 84 1006.1
20141126062835 84 40 12.0 14.0 0.00 0.00 0.00 84 1006.0
20141126062406 85 36 11.0 14.0 0.00 0.00 0.00 84 1006.0
20141126061826 85 34 12.0 13.0 0.00 0.00 0.00 84 1006.0
20141126061353 85 30 11.0 13.0 0.00 0.00 0.00 84 1006.0
20141126060841 85 35 10.0 15.0 0.00 0.00 0.00 84 1006.0
20141126060423 85 34 11.0 15.0 0.00 0.00 0.00 84 1006.0
20141126055835 85 36 12.0 16.0 0.00 0.00 0.00 83 1006.2
20141126054912 85 35 12.0 16.0 0.00 0.00 0.00 84 1006.2
20141126053400 85 37 13.0 17.0 0.00 0.00 0.00 82 1006.2
20141126052832 85 33 13.0 16.0 0.00 0.00 0.00 83 1006.0